{"data":{"norad_id":59892,"epoch":"2026-09-21T22:26:25.126656Z","epoch_age_seconds":50452,"freshness":"FRESH","line1":"1 59892U 24100H   26264.93501304 -.00000045  00000+0  78836-5 0  9991","line2":"2 59892  43.0022  89.8725 0001285 269.9957  90.0748 15.27578052131250","mean_motion":15.27578052,"eccentricity":0.0001285,"inclination_deg":43.0022,"raan_deg":89.8725,"arg_perigee_deg":269.9957,"mean_anomaly_deg":90.0748,"bstar":7.8836e-6,"rev_number":13125,"period_min":94.266868924613,"perigee_km":482.17326589576,"apogee_km":483.93659222152,"semimajor_km":6861.1919290586,"source":"CELESTRAK","updated_at":"2026-09-22T09:00:49.106938Z"}}